Regional Weather Roundup
Issued by NWS

Home | Current Version | Previous Version | Text Only | Print | Product List | Glossary Off
Versions: 1 2 3 4 5 6 7 8 9 10 11 12 13 14 15 16 17 18 19 20 21 22 23 24 25 26 27 28 29 30 31 32 33 34 35 36 37 38 39 40 41 42 43 44 45 46 47 48 49 50

000
ASUS45 KTFX 061610
RWRMT
MONTANA REGIONAL WEATHER ROUNDUP
NATIONAL WEATHER SERVICE GREAT FALLS MT
900 AM MST SAT FEB 06 2016

NOTE: "FAIR" INDICATES FEW OR NO CLOUDS BELOW 12000 FEET WITH NO
SIGNIFICANT WEATHER AND/OR OBSTRUCTIONS TO VISIBILITY.

MTZ001>007-043-061700-
WEST OF THE DIVIDE

CITY           SKY/WX    TMP DP  RH WIND       PRES   REMARKS
KALISPELL      PTCLDY    35  28  75 S13       30.11R WCI  26
MISSOULA       PTCLDY    35  24  64 W13       30.22R WCI  26
BUTTE          CLOUDY    37  20  50 W18G30    30.07F WCI  27
MULLAN PASS    MIX PCPN  23  20  88 W12G21    30.14R WCI  12
ANACONDA         N/A     36  27  69 W15G21    30.07F WCI  26
DEER LODGE       N/A     32  28  86 NW24G32   30.11R VSB 1   WCI  19
HAMILTON         N/A     34  30  86 SE5       30.25R
LIBBY            N/A     41  19  42 SW8       30.15S
PLAINS           N/A     40  24  53 SW21      30.18R
$$

MTZ008-052>055-061700-
SOUTHWEST MONTANA

CITY           SKY/WX    TMP DP  RH WIND       PRES   REMARKS
BOZEMAN        CLOUDY    41  21  44 SW25G35   30.05R
DILLON         CLOUDY    28  18  66 SW15      30.15R WCI  16
ENNIS          SUNNY     34  18  51 S26G38    30.23R WCI  21
THREE FORKS      N/A     36   3  25 CALM      30.05R
TWIN BRIDGES     N/A     31  14  49 SE14      30.12S WCI  21
$$

MTZ009-010-012-014-046-048-049-054-061700-
EAST SLOPES AND CENTRAL MONTANA

CITY           SKY/WX    TMP DP  RH WIND       PRES   REMARKS
CUT BANK       CLEAR     35  22  58 W40G53    29.77F WCI  20
GREAT FALLS    CLOUDY    36  26  67 W24G32    29.93R WCI  24
MALMSTROM AFB  CLOUDY    36  30  78 SW22G29   29.96R WCI  25
HELENA         CLOUDY    38  25  59 W15G25    30.09R WCI  29
CHOTEAU          N/A     37  21  52 W17G24    29.96R WCI  28
$$

MTZ011-013-016-021-045-047-050-051-061700-
NORTH CENTRAL MONTANA

CITY           SKY/WX    TMP DP  RH WIND       PRES   REMARKS
HAVRE          CLOUDY    41  30  65 SW37G48   29.69F
LEWISTOWN      PTSUNNY   42  24  49 W33G45    29.90R
N BAR RANCH      N/A     46  18  31 W29G39    29.84F
CHINOOK          N/A     45  27  49 SW28G41   29.73F
$$

MTZ017>020-022>027-061-062-061700-
NORTHEAST MONTANA

CITY           SKY/WX    TMP DP  RH WIND       PRES   REMARKS
GLASGOW        CLOUDY    41  25  53 W5        29.73F
JORDAN           N/A     39  27  62 W9        29.81F
SIDNEY         CLOUDY    37  27  65 S13       29.75F WCI  29
WOLF POINT     CLOUDY    38  28  67 W6        29.74F
MALTA            N/A    N/A N/A N/A MISG      29.75
PLENTYWOOD       N/A     43  27  52 SW9G20    29.67F
POPLAR           N/A     39  28  65 SW12      29.74F WCI  32
SCOBEY           N/A     40  21  46 SW18      29.67
$$

MTZ028>42-056>058-061700-
SOUTHCENTRAL AND SOUTHEAST MONTANA

CITY           SKY/WX    TMP DP  RH WIND       PRES   REMARKS
BAKER          CLOUDY    40  18  41 W10       29.86F
BILLINGS       CLOUDY    42  17  36 W21G29    29.91F
LIVINGSTON     CLOUDY    42  18  37 SW51G64   29.94R
MILES CITY     CLOUDY    43  23  45 W5        29.85F
EKALAKA          N/A     39  16  39 SW15      29.86F WCI  30
FORSYTH          N/A     46  18  31 SW15      29.87F
LAUREL           N/A     41  14  33 SW16      29.93F
ROUNDUP          N/A     40  18  41 S3        29.82R
$$

REGIONAL REPORTS...DAKOTAS

CITY           SKY/WX    TMP DP  RH WIND       PRES   REMARKS
WILLISTON      CLOUDY    40  28  62 SW7       29.71F
MINOT          CLOUDY    44  26  49 SW14      29.66F
DICKINSON      CLOUDY    38  21  50 W16       29.79F WCI  29
BEACH            N/A     39  21  48 SW18G28   29.83S WCI  30
CROSBY           N/A     39  32  75 SW23G29   29.66F WCI  29
TIOGA            N/A     39  32  75 W20       29.73S WCI  30
WATFORD CITY     N/A     39  27  60 W9G18     29.74F
BISMARCK       CLOUDY    42  26  53 SW8       29.80F
GRAND FORKS    CLOUDY    27  22  81 S13       29.78F WCI  16
FARGO          CLOUDY    29  23  78 S10       29.84F WCI  20
BUFFALO SD       N/A     36  20  52 W15       29.83F WCI  27
RAPID CITY     CLOUDY    40  27  59 S6        29.98F
$$

REGIONAL REPORTS...WYOMING/IDAHO/WASHINGTON

CITY           SKY/WX    TMP DP  RH WIND       PRES   REMARKS
GILLETTE       CLOUDY    35  22  58 SW25G36   29.99F WCI  23
SHERIDAN       PTSUNNY   37  21  52 CALM      29.92F
BUFFALO WY     CLOUDY    45  20  36 S15       29.97F
CODY           CLOUDY    39  18  41 W13G28    30.07F WCI  32
YELLOWSTONE LA   N/A     21  16  81 VRB5      30.28F
IDAHO FALLS    CLOUDY    12  10  92 CALM      30.43S
SALMON         CLOUDY    14  10  85 N5        30.29S
BOISE          CLOUDY    35  27  72 SE16      30.41S WCI  25
SPOKANE        MOCLDY    33  29  85 SW14      30.28R WCI  23
$$

REGIONAL REPORTS...ALBERTA

CITY           SKY/WX    TMP DP  RH WIND       PRES   REMARKS
EDMONTON       PTCLDY    39  23  52 W18G28    29.54R WCI  30
CALGARY        MOCLDY    41  19  42 W18G29    29.65R
LETHBRIDGE     PTCLDY    41  18  38 W31G48    29.71R
MEDICINE HAT   MOCLDY    43  25  49 W35G48    29.61R
WATERTON GATE    N/A     36  14  41 SW40G64     N/A  WCI  21
CARDSTON         N/A     39  14  35 W31G44      N/A  WCI  27
MILK RIVER       N/A     39  21  48 W37G51      N/A  WCI  26
$$

REGIONAL REPORTS...SASKATCHEWAN

CITY           SKY/WX    TMP DP  RH WIND       PRES   REMARKS
SWIFT CURRENT  SUNNY     45  28  53 W32G41    29.53F
REGINA         PTSUNNY   39  28  65 SW16      29.51F WCI  30
SASKATOON      CLOUDY    34  28  80 SW16      29.41F WCI  23
CYPRESS HILLS    N/A     36  19  51 W25G43      N/A  WCI  23
VAL MARIE        N/A     45  25  45 W28G33      N/A
ROCKGLEN         N/A     37  28  70 W26G32      N/A  WCI  26
$$



USA.gov is the U.S. government's official web portal to all federal, state and local government web resources and services.